CW5416 Weather Reports


Display with metric or nautical units.
time (UTC)temp
F
wind
direction
speed
MPH
gust
MPH
rain 1hr
in
rain 24hr
in
rain mn
in
humidity
%
barometer
mb
20181219000506 55 183 4.0 7.0 0.00 1.18 0.87 46 1009.2
20181219000005 54 195 4.0 5.0 0.00 1.18 0.87 45 1009.2
20181218235503 55 188 0.0 0.0 0.00 1.18 0.87 43 1009.2
20181218235002 55 197 3.0 4.0 0.00 1.18 0.87 40 1009.2
20181218234501 55 198 5.0 6.0 0.00 1.18 0.87 37 1009.2
20181218234007 55 183 3.0 4.0 0.00 1.18 0.87 36 1008.2
20181218233504 55 217 5.0 6.0 0.00 1.18 0.87 36 1008.2
20181218233003 55 200 6.0 8.0 0.00 1.18 0.87 35 1008.2
20181218232502 56 211 6.0 8.0 0.00 1.18 0.87 35 1008.2
20181218232001 56 196 2.0 5.0 0.00 1.18 0.87 35 1008.2
20181218231500 56 193 6.0 7.0 0.00 1.18 0.87 35 1008.2
20181218231005 57 186 4.0 5.0 0.00 1.18 0.87 35 1008.2
20181218230503 57 256 2.0 5.0 0.00 1.18 0.87 36 1008.2
20181218230002 57 256 5.0 8.0 0.00 1.18 0.87 36 1008.2
20181218225501 57 246 2.0 6.0 0.00 1.18 0.87 36 1008.2
20181218225000 56 199 5.0 6.0 0.00 1.18 0.87 36 1008.2
20181218224505 56 215 5.0 7.0 0.00 1.18 0.87 36 1008.2
20181218224004 56 191 1.0 4.0 0.00 1.18 0.87 37 1008.2
20181218223502 56 189 4.0 5.0 0.00 1.18 0.87 37 1008.2
20181218223006 56 187 1.0 3.0 0.00 1.18 0.87 36 1008.2
20181218222505 56 187 5.0 6.0 0.00 1.18 0.87 35 1008.2
20181218222005 57 195 1.0 6.0 0.00 1.18 0.87 35 1008.2
20181218221504 57 237 0.0 3.0 0.00 1.18 0.87 35 1008.2
20181218221002 57 179 5.0 6.0 0.00 1.18 0.87 33 1007.2
20181218220501 58 198 7.0 9.0 0.00 1.18 0.87 34 1007.2
20181218220005 58 187 5.0 6.0 0.00 1.18 0.87 34 1007.2
20181218215504 58 184 3.0 4.0 0.00 1.18 0.87 34 1007.2
20181218215004 58 274 8.0 12.0 0.00 1.18 0.87 34 1007.2
20181218214502 58 198 4.0 4.0 0.00 1.18 0.87 35 1007.2
20181218214007 57 204 1.0 4.0 0.00 1.18 0.87 36 1007.2
20181218213505 57 177 4.0 5.0 0.00 1.18 0.87 37 1007.2
20181218213006 56 208 1.0 4.0 0.00 1.18 0.87 39 1007.2
20181218212504 56 197 3.0 4.0 0.00 1.18 0.87 41 1007.2
20181218212003 56 211 5.0 6.0 0.00 1.18 0.87 42 1007.2
20181218211501 56 205 4.0 5.0 0.00 1.18 0.87 40 1007.2
20181218211005 56 220 7.0 8.0 0.00 1.18 0.87 41 1007.2
20181218210505 56 202 5.0 6.0 0.00 1.18 0.87 41 1007.2
20181218210004 56 171 5.0 8.0 0.00 1.18 0.87 39 1007.2
20181218205503 56 179 6.0 7.0 0.00 1.18 0.87 38 1006.2
20181218205002 56 210 5.0 6.0 0.00 1.18 0.87 38 1006.2
20181218204506 56 203 7.0 9.0 0.00 1.18 0.87 37 1006.2
20181218204005 56 174 5.0 6.0 0.00 1.18 0.87 38 1007.2
20181218203505 55 191 6.0 8.0 0.00 1.18 0.87 36 1007.2
20181218203004 55 109 5.0 6.0 0.00 1.18 0.87 41 1007.2
20181218202502 55 232 2.0 3.0 0.00 1.18 0.87 41 1007.2
20181218202001 55 205 3.0 5.0 0.00 1.18 0.87 40 1007.2
20181218201505 55 192 5.0 6.0 0.00 1.18 0.87 40 1007.2
20181218201005 55 194 5.0 6.0 0.00 1.18 0.87 39 1007.2
20181218200504 55 269 5.0 6.0 0.00 1.18 0.87 40 1007.2
20181218200002 55 114 2.0 5.0 0.00 1.18 0.87 40 1007.2
20181218195506 55 183 4.0 5.0 0.00 1.18 0.87 44 1006.2
20181218195005 55 208 5.0 9.0 0.00 1.18 0.87 46 1006.2
20181218194504 55 231 4.0 6.0 0.00 1.18 0.87 58 1006.2
20181218194004 54 187 4.0 5.0 0.00 1.18 0.87 57 1006.2
20181218193502 53 207 2.0 4.0 0.00 1.18 0.87 62 1006.2
20181218193006 53 142 4.0 4.0 0.00 1.18 0.87 63 1006.2
20181218192505 53 194 4.0 5.0 0.00 1.18 0.87 62 1006.2
20181218192005 53 197 3.0 6.0 0.00 1.18 0.87 64 1006.2
20181218191504 53 208 4.0 6.0 0.00 1.18 0.87 64 1006.2
20181218191003 53 212 7.0 8.0 0.00 1.18 0.87 65 1006.2
20181218190501 53 161 5.0 8.0 0.00 1.18 0.87 69 1006.2
20181218190006 53 142 5.0 6.0 0.00 1.18 0.87 73 1006.2
20181218185505 53 230 6.0 7.0 0.00 1.18 0.87 77 1006.2
20181218185004 53 199 5.0 6.0 0.00 1.18 0.87 81 1006.2
20181218184503 52 202 5.0 6.0 0.00 1.18 0.87 82 1006.2
20181218184002 52 187 5.0 8.0 0.00 1.18 0.87 83 1005.2
20181218183506 52 223 7.0 8.0 0.00 1.18 0.87 83 1005.2
20181218183005 52 199 5.0 6.0 0.00 1.18 0.87 84 1005.2
20181218182504 52 191 3.0 7.0 0.00 1.18 0.87 84 1005.2
20181218182003 52 185 3.0 4.0 0.00 1.18 0.87 84 1005.2
20181218181502 51 206 5.0 6.0 0.00 1.18 0.87 83 1005.2
20181218181002 51 175 3.0 4.0 0.00 1.18 0.87 82 1004.2
20181218180506 51 183 4.0 5.0 0.00 1.18 0.87 81 1004.2
20181218180004 51 194 4.0 4.0 0.00 1.18 0.87 81 1004.2
20181218175503 51 200 3.0 4.0 0.00 1.18 0.87 80 1004.2
20181218175002 51 202 3.0 4.0 0.00 1.18 0.87 79 1004.2
20181218174506 51 204 2.0 6.0 0.00 1.18 0.87 80 1004.2
20181218174005 51 185 3.0 6.0 0.00 1.18 0.87 81 1004.2
20181218173504 51 200 5.0 6.0 0.00 1.18 0.87 80 1004.2
20181218173003 51 206 4.0 5.0 0.00 1.18 0.87 81 1004.2
20181218172502 51 190 4.0 5.0 0.00 1.18 0.87 81 1004.2
20181218172008 51 213 5.0 6.0 0.00 1.18 0.87 81 1004.2
20181218171505 51 190 5.0 8.0 0.00 1.18 0.87 82 1004.2
20181218171004 51 191 5.0 6.0 0.00 1.18 0.87 82 1003.2
20181218170504 51 203 4.0 5.0 0.00 1.18 0.87 84 1003.2
20181218170003 51 196 3.0 6.0 0.00 1.18 0.87 85 1003.2
20181218165507 51 202 5.0 6.0 0.00 1.18 0.87 86 1003.2
20181218165006 51 183 4.0 4.0 0.00 1.18 0.87 86 1003.2
20181218164505 51 213 4.0 5.0 0.00 1.18 0.87 86 1003.2
20181218164004 51 172 4.0 5.0 0.00 1.18 0.87 86 1003.2
20181218163503 51 193 4.0 6.0 0.00 1.18 0.87 86 1003.2
20181218163002 51 197 4.0 5.0 0.00 1.18 0.87 86 1003.2
20181218162501 51 187 4.0 4.0 0.00 1.18 0.87 86 1002.2
20181218162006 52 197 3.0 6.0 0.00 1.18 0.87 86 1002.2
20181218161505 52 188 3.0 5.0 0.00 1.18 0.87 87 1002.2
20181218161003 52 172 3.0 5.0 0.00 1.18 0.87 87 1002.2
20181218160503 52 204 2.0 4.0 0.00 1.18 0.87 87 1002.2
20181218160002 52 258 4.0 4.0 0.00 1.14 0.83 87 1002.2
20181218155507 52 178 3.0 4.0 0.00 1.14 0.83 87 1001.2
20181218155006 52 192 0.0 0.0 0.00 1.14 0.83 87 1001.2
20181218154504 52 193 4.0 5.0 0.00 1.14 0.83 87 1001.2
20181218154003 52 207 5.0 6.0 0.00 1.14 0.83 86 1000.2
20181218153502 52 219 2.0 4.0 0.00 1.14 0.83 86 1000.2
20181218153001 52 181 3.0 4.0 0.00 1.14 0.83 86 1000.2
20181218152506 52 190 2.0 5.0 0.00 1.10 0.79 86 1000.2
20181218152005 52 181 3.0 6.0 0.00 1.10 0.79 87 1000.2
20181218151503 52 161 3.0 5.0 0.00 1.10 0.79 88 1000.2
20181218151003 52 209 4.0 5.0 0.00 1.10 0.79 89 1000.2
20181218150507 52 162 3.0 5.0 0.00 1.10 0.79 89 1000.2
20181218150007 52 235 5.0 10.0 0.00 1.06 0.75 89 1000.2
20181218145505 52 221 5.0 9.0 0.00 1.06 0.75 89 999.2
20181218145004 52 264 9.0 13.0 0.00 1.06 0.75 88 999.2
20181218144503 53 281 9.0 13.0 0.00 1.02 0.71 88 999.2
20181218144002 53 287 8.0 10.0 0.00 0.98 0.67 89 999.2
20181218143506 53 262 6.0 9.0 0.00 0.98 0.67 88 999.2
20181218143006 53 168 4.0 6.0 0.00 0.94 0.63 88 999.2
20181218142504 53 171 6.0 8.0 0.00 0.94 0.63 87 998.2
20181218142003 53 198 8.0 9.0 0.00 0.91 0.59 86 998.2
20181218141502 53 185 5.0 8.0 0.00 0.91 0.59 86 998.2
20181218141007 53 207 9.0 13.0 0.00 0.91 0.59 86 998.2
20181218140505 53 237 8.0 11.0 0.00 0.91 0.59 86 998.2
20181218140004 53 237 7.0 7.0 0.00 0.87 0.55 85 998.2
20181218135503 53 193 6.0 7.0 0.00 0.87 0.55 85 998.2
20181218135002 53 199 6.0 8.0 0.00 0.87 0.55 86 998.2
20181218134507 53 195 4.0 9.0 0.00 0.87 0.55 86 998.2
20181218134006 53 183 9.0 15.0 0.00 0.83 0.51 86 998.2
20181218133504 53 208 6.0 15.0 0.00 0.83 0.51 85 998.2
20181218133003 53 171 4.0 5.0 0.00 0.79 0.47 84 998.2
20181218132502 53 206 5.0 6.0 0.00 0.79 0.47 83 998.2
20181218132007 52 197 4.0 6.0 0.00 0.75 0.43 83 998.2
20181218131506 52 285 8.0 13.0 0.00 0.75 0.43 83 998.2
20181218131004 52 237 5.0 7.0 0.00 0.75 0.43 83 997.2
20181218130503 52 190 5.0 6.0 0.00 0.75 0.43 83 997.2
20181218130002 52 207 5.0 8.0 0.00 0.71 0.39 83 997.2
20181218125507 52 101 7.0 11.0 0.00 0.71 0.39 83 997.2
20181218125006 52 186 6.0 12.0 0.00 0.71 0.39 83 997.2
20181218124504 52 220 7.0 9.0 0.00 0.71 0.39 83 997.2
20181218124003 52 171 6.0 8.0 0.00 0.71 0.39 83 997.2
20181218123502 52 178 5.0 7.0 0.00 0.71 0.39 83 997.2
20181218123007 52 267 5.0 8.0 0.00 0.67 0.35 82 997.2
20181218122506 52 189 7.0 8.0 0.00 0.67 0.35 82 998.2
20181218122005 52 256 9.0 13.0 0.00 0.67 0.35 81 998.2
20181218121505 52 207 8.0 10.0 0.00 0.67 0.35 80 998.2
20181218121003 52 208 7.0 12.0 0.00 0.63 0.31 80 998.2
20181218120502 52 83 7.0 11.0 0.00 0.67 0.31 79 998.2
20181218120009 52 179 5.0 7.0 0.00 0.67 0.31 78 998.2
20181218115507 52 187 7.0 9.0 0.00 0.67 0.31 78 998.2
20181218115006 52 195 5.0 6.0 0.00 0.63 0.28 77 998.2
20181218114505 52 168 5.0 8.0 0.00 0.63 0.28 76 998.2
20181218114006 52 178 8.0 9.0 0.00 0.63 0.28 75 999.2
20181218113503 52 199 6.0 7.0 0.00 0.63 0.28 72 999.2
20181218113002 52 190 7.0 9.0 0.00 0.59 0.24 70 999.2
20181218112507 52 208 5.0 7.0 0.00 0.59 0.24 71 999.2
20181218112006 51 200 4.0 7.0 0.00 0.59 0.24 73 999.2
20181218111506 51 176 5.0 8.0 0.00 0.63 0.24 76 999.2
20181218111005 51 204 5.0 6.0 0.00 0.63 0.24 76 999.2
20181218110504 51 210 3.0 4.0 0.00 0.63 0.24 76 999.2
20181218110005 51 201 7.0 9.0 0.00 0.63 0.24 76 999.2
20181218105502 51 221 4.0 7.0 0.00 0.63 0.24 77 999.2
20181218105007 51 185 7.0 10.0 0.00 0.63 0.24 79 999.2
20181218104506 51 199 4.0 6.0 0.00 0.63 0.24 80 999.2
20181218104005 51 169 5.0 6.0 0.00 0.63 0.24 79 1000.2
20181218103504 51 217 8.0 13.0 0.00 0.63 0.24 80 1000.2
20181218103003 51 167 7.0 9.0 0.00 0.63 0.24 80 1000.2
20181218102502 51 178 6.0 9.0 0.00 0.59 0.20 80 1000.2
20181218102007 51 188 3.0 5.0 0.00 0.59 0.20 80 1000.2
20181218101506 51 175 7.0 8.0 0.00 0.59 0.20 79 1000.2
20181218101005 50 203 4.0 7.0 0.00 0.59 0.20 80 1000.2
20181218100507 50 195 6.0 11.0 0.00 0.59 0.20 80 1000.2
20181218100003 50 182 6.0 10.0 0.00 0.59 0.20 81 1000.2
20181218095501 50 212 6.0 8.0 0.00 0.59 0.20 82 1000.2
20181218095007 50 200 8.0 11.0 0.00 0.59 0.20 82 1000.2
20181218094505 50 200 6.0 8.0 0.00 0.55 0.16 82 1000.2
20181218094004 50 182 7.0 12.0 0.00 0.55 0.16 82 1001.2
20181218093504 50 212 8.0 10.0 0.00 0.55 0.16 82 1001.2
20181218093003 50 204 5.0 7.0 0.00 0.55 0.16 82 1001.2
20181218092501 50 208 6.0 8.0 0.00 0.55 0.16 82 1001.2
20181218092007 50 186 6.0 9.0 0.00 0.47 0.08 83 1001.2
20181218091004 50 184 4.0 4.0 0.00 0.47 0.08 84 1002.2
20181218090503 50 201 3.0 6.0 0.00 0.47 0.08 84 1002.2
20181218090002 50 195 3.0 4.0 0.00 0.47 0.08 85 1002.2
20181218085507 50 173 5.0 6.0 0.00 0.47 0.08 85 1002.2
20181218085005 49 191 5.0 7.0 0.00 0.43 0.04 86 1002.2
20181218084504 49 206 3.0 6.0 0.00 0.43 0.04 86 1002.2
20181218084003 49 194 5.0 7.0 0.00 0.43 0.04 86 1001.2
20181218083508 49 225 5.0 7.0 0.00 0.43 0.04 87 1001.2
20181218083007 49 198 6.0 6.0 0.00 0.43 0.04 88 1001.2
20181218082505 49 186 6.0 6.0 0.00 0.43 0.04 88 1002.2
20181218082004 49 189 0.0 3.0 0.00 0.43 0.04 89 1002.2
20181218081503 49 271 4.0 5.0 0.00 0.43 0.04 89 1002.2
20181218081001 49 151 3.0 4.0 0.00 0.39 0.00 88 1002.2
20181218080506 49 184 4.0 5.0 0.00 0.39 0.00 88 1002.2
20181218080005 48 192 1.0 3.0 0.00 0.39 0.00 87 1002.2
20181218075504 48 191 2.0 3.0 0.00 0.39 0.39 87 1003.2
20181218075015 48 216 2.0 4.0 0.00 0.39 0.39 86 1003.2
20181218074502 48 217 1.0 4.0 0.00 0.35 0.35 86 1003.2
20181218074001 48 217 3.0 4.0 0.00 0.35 0.35 86 1003.2
20181218073459 48 168 0.0 5.0 0.00 0.35 0.35 85 1003.2
20181218073003 48 154 0.0 0.0 0.00 0.35 0.35 85 1003.2
20181218072502 48 153 0.0 0.0 0.00 0.35 0.35 85 1003.2
20181218072001 48 211 1.0 3.0 0.00 0.35 0.35 85 1003.2
20181218071500 48 211 0.0 0.0 0.00 0.31 0.31 85 1003.2
20181218071000 48 226 0.0 4.0 0.00 0.31 0.31 83 1003.2
20181218070458 48 219 1.0 4.0 0.00 0.31 0.31 83 1003.2
20181218070004 48 219 0.0 0.0 0.00 0.31 0.31 82 1003.2
20181218065502 48 219 3.0 5.0 0.00 0.31 0.31 82 1003.2
20181218065000 48 216 0.0 0.0 0.00 0.31 0.31 81 1003.2
20181218064458 48 216 0.0 0.0 0.00 0.28 0.28 81 1003.2
20181218064002 48 216 3.0 4.0 0.00 0.28 0.28 80 1003.2
20181218063501 48 216 0.0 0.0 0.00 0.28 0.28 80 1003.2
20181218063000 48 216 2.0 4.0 0.00 0.28 0.28 79 1003.2
20181218062459 48 216 0.0 0.0 0.00 0.28 0.28 79 1003.2
20181218061959 48 207 3.0 4.0 0.00 0.28 0.28 78 1003.2
20181218061504 48 209 1.0 3.0 0.00 0.28 0.28 78 1003.2
20181218061004 48 209 1.0 4.0 0.00 0.28 0.28 78 1003.2
20181218060502 48 209 3.0 4.0 0.00 0.28 0.28 78 1003.2
20181218060001 48 201 5.0 8.0 0.00 0.28 0.28 78 1003.2
20181218055500 48 198 3.0 4.0 0.00 0.28 0.28 77 1003.2
20181218054959 48 199 0.0 0.0 0.00 0.28 0.28 76 1003.2
20181218054458 48 199 2.0 4.0 0.00 0.24 0.24 76 1003.2
20181218054003 48 227 4.0 4.0 0.00 0.24 0.24 75 1003.2
20181218053501 48 230 0.0 0.0 0.00 0.24 0.24 75 1003.2
20181218052959 48 230 1.0 3.0 0.00 0.24 0.24 75 1003.2
20181218052504 48 192 0.0 3.0 0.00 0.24 0.24 76 1003.2
20181218052002 48 208 0.0 3.0 0.00 0.24 0.24 76 1003.2
20181218051502 48 197 0.0 3.0 0.00 0.24 0.24 76 1003.2
20181218051001 48 198 2.0 4.0 0.00 0.24 0.24 76 1004.2
20181218050500 48 197 1.0 4.0 0.00 0.24 0.24 76 1004.2
20181218045959 48 197 1.0 3.0 0.00 0.24 0.24 76 1004.2
20181218045458 47 205 0.0 0.0 0.00 0.24 0.24 76 1004.2
20181218045004 47 221 2.0 4.0 0.00 0.24 0.24 76 1004.2
20181218044502 47 217 5.0 6.0 0.00 0.24 0.20 75 1004.2
20181218044000 47 233 3.0 4.0 0.00 0.24 0.20 75 1004.2
20181218043504 47 168 0.0 0.0 0.00 0.24 0.20 74 1004.2
20181218043003 47 168 0.0 0.0 0.00 0.24 0.20 73 1004.2
20181218042501 47 168 0.0 0.0 0.00 0.24 0.20 73 1004.2
20181218042001 47 168 1.0 4.0 0.00 0.24 0.20 73 1004.2
20181218041500 47 169 1.0 3.0 0.00 0.24 0.20 72 1004.2
20181218040959 47 169 1.0 4.0 0.00 0.24 0.20 71 1004.2
20181218040459 47 175 0.0 0.0 0.00 0.24 0.20 70 1004.2
20181218040004 47 175 3.0 4.0 0.00 0.24 0.20 70 1004.2
20181218035502 47 155 0.0 0.0 0.00 0.24 0.20 70 1004.2
20181218035001 47 196 2.0 6.0 0.00 0.24 0.20 70 1004.2
20181218034459 47 151 0.0 0.0 0.00 0.24 0.20 68 1004.2
20181218034004 47 151 1.0 5.0 0.00 0.20 0.16 67 1005.2
20181218033503 47 151 0.0 0.0 0.00 0.20 0.16 66 1005.2
20181218033002 47 151 0.0 0.0 0.00 0.20 0.16 64 1005.2
20181218032500 47 151 1.0 3.0 0.00 0.20 0.16 63 1005.2
20181218031958 47 147 4.0 5.0 0.00 0.24 0.16 63 1005.2
20181218031503 47 206 0.0 0.0 0.00 0.24 0.16 62 1005.2
20181218031001 47 206 0.0 0.0 0.00 0.24 0.16 61 1005.2
20181218030500 47 206 3.0 5.0 0.00 0.24 0.16 62 1005.2
20181218025959 47 110 0.0 0.0 0.00 0.24 0.16 62 1005.2
20181218025458 47 137 3.0 6.0 0.00 0.24 0.16 63 1005.2
20181218024958 47 227 1.0 4.0 0.00 0.24 0.16 62 1005.2
20181218024502 47 38 2.0 4.0 0.00 0.24 0.16 62 1005.2
20181218024002 47 145 0.0 0.0 0.00 0.24 0.16 60 1005.2
20181218023500 47 149 0.0 0.0 0.00 0.24 0.16 60 1005.2
20181218023004 48 140 2.0 4.0 0.00 0.24 0.16 60 1005.2
20181218022503 48 140 0.0 0.0 0.00 0.24 0.16 59 1006.2
20181218022001 48 140 0.0 4.0 0.00 0.20 0.12 58 1006.2
20181218021500 48 178 5.0 10.0 0.00 0.20 0.12 55 1006.2
20181218020959 48 180 1.0 3.0 0.00 0.20 0.12 55 1006.2
20181218020505 48 170 3.0 5.0 0.00 0.20 0.12 53 1006.2
20181218020003 48 207 0.0 0.0 0.00 0.20 0.12 52 1006.2
20181218015502 48 203 1.0 4.0 0.00 0.20 0.12 52 1006.2
20181218015000 48 222 3.0 4.0 0.00 0.20 0.12 51 1006.2
20181218014459 48 173 0.0 0.0 0.00 0.20 0.12 49 1006.2
20181218013958 49 181 2.0 3.0 0.00 0.16 0.08 49 1006.2
20181218013503 49 197 1.0 5.0 0.00 0.16 0.08 48 1006.2
20181218013002 49 204 0.0 0.0 0.00 0.16 0.08 48 1006.2
20181218012500 49 119 3.0 4.0 0.00 0.16 0.08 48 1006.2
20181218011959 49 122 0.0 0.0 0.00 0.16 0.08 47 1006.2
20181218011505 49 112 0.0 3.0 0.00 0.16 0.08 45 1006.2
20181218011003 49 141 1.0 3.0 0.00 0.16 0.08 45 1006.2
20181218010502 49 143 0.0 0.0 0.00 0.16 0.08 44 1006.2
20181218010000 49 136 1.0 3.0 0.00 0.16 0.08 42 1006.2
20181218005459 49 91 4.0 4.0 0.00 0.16 0.08 42 1006.2
20181218005005 50 108 3.0 9.0 0.00 0.16 0.08 40 1006.2
20181218004504 50 148 1.0 8.0 0.00 0.16 0.08 40 1006.2
20181218004002 50 109 5.0 6.0 0.00 0.16 0.08 39 1006.2
20181218003500 49 108 2.0 5.0 0.00 0.16 0.08 40 1006.2
20181218002959 50 167 4.0 6.0 0.00 0.16 0.08 39 1006.2
20181218002458 50 116 2.0 6.0 0.00 0.16 0.08 40 1006.2
20181218002004 49 111 3.0 3.0 0.00 0.16 0.08 41 1006.2
20181218001502 49 98 4.0 6.0 0.00 0.16 0.08 43 1006.2
20181218001002 49 96 3.0 5.0 0.00 0.16 0.08 42 1007.2